TimeCDT,TemperatureF,Dew PointF,Humidity,Sea Level PressureIn,VisibilityMPH,Wind Direction,Wind SpeedMPH,Gust SpeedMPH,PrecipitationIn,Events,Conditions,WindDirDegrees,DateUTC
12:15 AM,71.6,60.8,69,30.07,10.0,South,8.1,-,N/A,,Clear,180,2013-07-12 05:15:00
12:35 AM,71.6,60.8,69,30.07,10.0,South,6.9,-,N/A,,Clear,170,2013-07-12 05:35:00
12:55 AM,69.8,59.0,68,30.08,10.0,South,6.9,-,N/A,,Clear,180,2013-07-12 05:55:00
1:15 AM,69.8,59.0,68,30.08,10.0,SSW,6.9,-,N/A,,Clear,200,2013-07-12 06:15:00
1:35 AM,68.0,59.0,73,30.08,10.0,SSW,5.8,-,N/A,,Clear,200,2013-07-12 06:35:00
1:55 AM,68.0,59.0,73,30.07,10.0,South,5.8,-,N/A,,Clear,190,2013-07-12 06:55:00
2:15 AM,68.0,59.0,73,30.07,10.0,South,5.8,-,N/A,,Clear,190,2013-07-12 07:15:00
2:35 AM,68.0,59.0,73,30.07,10.0,SSW,5.8,-,N/A,,Clear,200,2013-07-12 07:35:00
2:55 AM,68.0,59.0,73,30.07,10.0,South,6.9,-,N/A,,Clear,190,2013-07-12 07:55:00
3:15 AM,66.2,59.0,78,30.07,10.0,SSE,4.6,-,N/A,,Clear,160,2013-07-12 08:15:00
3:35 AM,66.2,59.0,78,30.06,10.0,South,6.9,-,N/A,,Clear,170,2013-07-12 08:35:00
3:55 AM,68.0,59.0,73,30.06,10.0,South,6.9,-,N/A,,Clear,170,2013-07-12 08:55:00
4:15 AM,68.0,59.0,73,30.06,10.0,SSE,6.9,-,N/A,,Clear,160,2013-07-12 09:15:00
4:35 AM,68.0,59.0,73,30.06,10.0,South,9.2,-,N/A,,Clear,170,2013-07-12 09:35:00
4:55 AM,66.2,59.0,78,30.06,10.0,SSE,10.4,-,N/A,,Clear,160,2013-07-12 09:55:00
5:15 AM,66.2,59.0,78,30.07,10.0,South,9.2,15.0,N/A,,Clear,170,2013-07-12 10:15:00
5:35 AM,66.2,59.0,78,30.07,10.0,South,9.2,15.0,N/A,,Clear,170,2013-07-12 10:35:00
5:55 AM,66.2,59.0,78,30.07,10.0,South,9.2,-,N/A,,Clear,180,2013-07-12 10:55:00
6:15 AM,66.2,59.0,78,30.07,10.0,South,8.1,-,N/A,,Clear,170,2013-07-12 11:15:00
6:35 AM,66.2,59.0,78,30.07,10.0,South,6.9,-,N/A,,Clear,170,2013-07-12 11:35:00
6:55 AM,66.2,59.0,78,30.07,10.0,SSE,10.4,-,N/A,,Clear,160,2013-07-12 11:55:00
7:15 AM,68.0,59.0,73,30.07,10.0,South,9.2,-,N/A,,Clear,170,2013-07-12 12:15:00
7:35 AM,68.0,60.8,78,30.08,10.0,SSE,13.8,-,N/A,,Clear,160,2013-07-12 12:35:00
7:55 AM,69.8,60.8,73,30.08,10.0,South,12.7,-,N/A,,Clear,170,2013-07-12 12:55:00
8:15 AM,69.8,60.8,73,30.09,10.0,SSE,12.7,-,N/A,,Clear,160,2013-07-12 13:15:00
8:35 AM,71.6,60.8,69,30.08,10.0,South,13.8,23.0,N/A,,Clear,170,2013-07-12 13:35:00
8:55 AM,73.4,60.8,65,30.08,10.0,South,13.8,21.9,N/A,,Clear,170,2013-07-12 13:55:00
9:15 AM,73.4,62.6,69,30.08,10.0,SSE,13.8,-,N/A,,Clear,160,2013-07-12 14:15:00
9:35 AM,75.2,60.8,61,30.08,10.0,SSE,13.8,24.2,N/A,,Clear,160,2013-07-12 14:35:00
9:55 AM,75.2,62.6,65,30.08,10.0,South,16.1,-,N/A,,Clear,170,2013-07-12 14:55:00
10:15 AM,77.0,62.6,61,30.07,10.0,South,15.0,23.0,N/A,,Clear,170,2013-07-12 15:15:00
10:35 AM,77.0,64.4,65,30.07,10.0,SSE,13.8,24.2,N/A,,Clear,150,2013-07-12 15:35:00
10:55 AM,78.8,62.6,57,30.07,10.0,SSE,17.3,-,N/A,,Clear,150,2013-07-12 15:55:00
11:15 AM,78.8,64.4,61,30.06,10.0,SSE,17.3,23.0,N/A,,Clear,150,2013-07-12 16:15:00
11:35 AM,80.6,64.4,58,30.06,10.0,South,15.0,21.9,N/A,,Clear,170,2013-07-12 16:35:00
11:55 AM,80.6,64.4,58,30.06,10.0,SSE,17.3,-,N/A,,Clear,150,2013-07-12 16:55:00
12:15 PM,82.4,64.4,54,30.06,10.0,SSE,16.1,-,N/A,,Clear,160,2013-07-12 17:15:00
12:35 PM,82.4,64.4,54,30.05,10.0,SSE,12.7,21.9,N/A,,Clear,160,2013-07-12 17:35:00
12:55 PM,82.4,64.4,54,30.05,10.0,SSE,15.0,23.0,N/A,,Clear,160,2013-07-12 17:55:00
1:15 PM,84.2,64.4,51,30.04,10.0,SSE,15.0,23.0,N/A,,Clear,150,2013-07-12 18:15:00
1:35 PM,84.2,64.4,51,30.03,10.0,SSE,15.0,24.2,N/A,,Clear,150,2013-07-12 18:35:00
1:55 PM,84.2,66.2,55,30.03,10.0,SSE,17.3,23.0,N/A,,Clear,160,2013-07-12 18:55:00
2:15 PM,86.0,64.4,48,30.02,10.0,SSE,19.6,-,N/A,,Clear,150,2013-07-12 19:15:00
2:35 PM,86.0,64.4,48,30.02,10.0,South,17.3,-,N/A,,Clear,170,2013-07-12 19:35:00
2:55 PM,86.0,66.2,51,30.02,10.0,SSE,17.3,23.0,N/A,,Clear,160,2013-07-12 19:55:00
3:15 PM,86.0,66.2,51,30.02,10.0,SSE,16.1,24.2,N/A,,Clear,150,2013-07-12 20:15:00
3:35 PM,87.8,66.2,49,30.01,10.0,South,13.8,21.9,N/A,,Clear,170,2013-07-12 20:35:00
3:55 PM,87.8,66.2,49,30.01,10.0,SSE,16.1,23.0,N/A,,Clear,160,2013-07-12 20:55:00
4:15 PM,87.8,66.2,49,30.00,10.0,SSE,18.4,25.3,N/A,,Clear,160,2013-07-12 21:15:00
4:35 PM,87.8,66.2,49,30.00,10.0,SSE,16.1,21.9,N/A,,Clear,150,2013-07-12 21:35:00
4:55 PM,87.8,66.2,49,30.00,10.0,SSE,15.0,23.0,N/A,,Clear,150,2013-07-12 21:55:00
5:15 PM,87.8,66.2,49,30.00,10.0,SSE,17.3,24.2,N/A,,Clear,160,2013-07-12 22:15:00
5:35 PM,87.8,66.2,49,30.00,10.0,SSE,15.0,24.2,N/A,,Clear,150,2013-07-12 22:35:00
5:55 PM,86.0,66.2,51,30.00,10.0,SSE,17.3,-,N/A,,Clear,150,2013-07-12 22:55:00
6:15 PM,86.0,66.2,51,29.99,10.0,SSE,15.0,23.0,N/A,,Clear,160,2013-07-12 23:15:00
6:35 PM,86.0,66.2,51,29.99,10.0,SSE,17.3,-,N/A,,Clear,160,2013-07-12 23:35:00
6:55 PM,86.0,66.2,51,29.99,10.0,SSE,12.7,18.4,N/A,,Clear,160,2013-07-12 23:55:00
7:15 PM,84.2,66.2,55,29.99,10.0,SSE,15.0,-,N/A,,Clear,160,2013-07-13 00:15:00
7:35 PM,84.2,66.2,55,30.00,10.0,SSE,11.5,-,N/A,,Clear,160,2013-07-13 00:35:00
7:55 PM,82.4,64.4,54,30.00,10.0,SSE,13.8,-,N/A,,Clear,160,2013-07-13 00:55:00
8:15 PM,80.6,64.4,58,29.99,10.0,SSE,12.7,-,N/A,,Clear,160,2013-07-13 01:15:00
8:35 PM,80.6,64.4,58,29.99,10.0,SSE,11.5,-,N/A,,Clear,160,2013-07-13 01:35:00
8:55 PM,78.8,64.4,61,30.00,10.0,SSE,8.1,-,N/A,,Clear,160,2013-07-13 01:55:00
9:15 PM,78.8,64.4,61,30.00,10.0,SSE,9.2,-,N/A,,Clear,160,2013-07-13 02:15:00
9:35 PM,78.8,62.6,57,30.01,10.0,SSE,10.4,-,N/A,,Clear,160,2013-07-13 02:35:00
9:55 PM,78.8,62.6,57,30.01,10.0,SSE,8.1,16.1,N/A,,Clear,160,2013-07-13 02:55:00
10:15 PM,78.8,60.8,54,30.01,10.0,SSE,11.5,-,N/A,,Clear,160,2013-07-13 03:15:00
10:35 PM,78.8,60.8,54,30.01,10.0,South,9.2,17.3,N/A,,Clear,170,2013-07-13 03:35:00
10:55 PM,77.0,60.8,57,30.00,10.0,SSE,12.7,-,N/A,,Clear,160,2013-07-13 03:55:00
11:15 PM,77.0,60.8,57,30.01,10.0,South,11.5,17.3,N/A,,Clear,170,2013-07-13 04:15:00
11:35 PM,77.0,60.8,57,30.01,10.0,South,11.5,-,N/A,,Scattered Clouds,170,2013-07-13 04:35:00
11:55 PM,77.0,60.8,57,30.02,10.0,South,11.5,-,N/A,,Partly Cloudy,170,2013-07-13 04:55:00